Date,TemperatureHighF,TemperatureAvgF,TemperatureLowF,DewpointHighF,DewpointAvgF,DewpointLowF,HumidityHigh,HumidityAvg,HumidityLow,PressureMaxIn,PressureMinIn,WindSpeedMaxMPH,WindSpeedAvgMPH,GustSpeedMaxMPH,PrecipitationSumIn
2013-1-1,75.3,65.8,54.2,66.6,60.9,51.8,97,85,65,30.10,29.92,21,3,21,0.12
2013-1-2,68.1,54.5,47.5,65.4,50.5,42.0,94,87,62,30.15,29.93,15,3,15,1.00
2013-1-3,47.5,42.9,36.2,42.8,39.6,31.5,94,88,80,30.31,30.12,14,2,14,0.32
2013-1-4,55.1,43.5,33.9,36.1,32.0,28.7,86,65,42,30.37,30.27,13,2,13,0.02
2013-1-5,53.8,47.4,38.4,40.0,33.8,28.4,79,59,44,30.35,30.19,10,1,10,0.02
2013-1-6,54.1,49.6,45.8,45.2,40.7,36.9,85,72,58,30.27,30.14,11,1,12,0.01
2013-1-7,61.1,49.4,39.7,40.3,37.7,35.7,86,66,40,30.30,30.17,14,2,14,0.02
2013-1-8,62.4,55.6,46.1,56.1,48.3,36.9,84,76,69,30.27,30.14,8,1,8,0.02
2013-1-9,71.1,63.7,60.7,65.1,59.8,56.0,93,87,80,30.27,30.15,11,1,11,0.00
2013-1-10,73.5,68.3,63.4,68.0,65.2,61.3,96,90,79,30.28,30.11,17,1,17,0.16
2013-1-11,74.6,68.5,61.9,68.8,65.3,60.0,96,90,79,30.17,30.04,8,1,14,0.01
2013-1-12,77.0,69.6,65.3,66.3,65.2,0.0,97,86,66,30.42,29.99,16,1,16,0.00
2013-1-13,75.8,70.3,67.4,69.0,67.5,65.9,96,91,77,30.03,29.95,12,2,17,0.06
2013-1-14,75.3,70.5,68.8,71.0,68.6,67.0,97,94,82,30.09,30.00,13,1,13,0.24
2013-1-15,74.8,70.5,67.1,69.8,68.2,63.0,96,93,82,30.04,29.91,19,2,22,0.41
2013-1-16,73.0,62.3,49.4,69.6,60.6,48.0,97,94,83,29.98,29.89,16,2,16,0.59
2013-1-17,49.3,42.2,38.8,48.0,37.1,31.4,96,82,70,30.25,29.95,26,4,26,0.04
2013-1-18,58.6,44.4,34.8,37.8,34.2,31.3,89,70,39,30.47,30.23,18,2,18,0.00
2013-1-19,61.0,48.1,31.9,46.0,38.8,29.0,92,72,50,30.39,30.20,10,1,11,0.00
2013-1-20,67.0,51.4,39.0,48.7,42.0,36.6,94,73,41,30.24,30.09,12,1,12,0.00
2013-1-21,65.6,51.3,36.1,45.7,39.8,33.8,95,68,38,30.17,30.07,7,1,9,0.00
2013-1-22,58.7,46.4,35.6,38.6,31.6,23.6,84,59,32,30.33,30.15,14,1,14,0.00
2013-1-23,66.3,48.2,32.0,47.8,38.9,29.1,90,73,46,30.40,30.26,14,0,14,0.00
2013-1-24,72.8,55.9,40.1,55.7,48.3,37.9,96,78,49,30.31,30.20,14,1,14,0.00
2013-1-25,69.8,57.0,43.9,57.0,50.5,42.0,96,81,57,30.28,30.14,21,2,22,0.00
2013-1-26,72.2,59.8,49.3,60.3,54.4,46.9,97,84,63,30.24,30.14,10,0,10,0.00
2013-1-27,73.3,59.8,49.1,57.6,52.2,45.1,94,78,55,30.31,30.22,9,0,9,0.00
2013-1-28,71.0,62.7,55.4,63.0,58.6,52.8,94,87,75,30.30,30.15,9,0,9,0.00
2013-1-29,76.2,67.3,59.5,68.9,64.2,58.0,97,90,75,30.16,29.89,17,2,17,0.12
2013-1-30,76.7,64.3,44.7,71.0,60.5,33.2,97,88,65,30.04,29.61,41,6,41,0.35
2013-1-31,57.7,45.1,34.6,34.4,29.9,24.4,83,59,28,30.28,30.04,22,2,22,0.00